User: anonymous   Login
Location: Churchill
(58.7670°N, 94.1670°W)
Time: 19:20:19
(UTC-05:00)
Language:

Cosmos 1315 Rocket - Orbit

View from above orbital plane
View from above orbital plane
View from above satellite
View from above satellite

Ground track
Ground track

The orbit data is extracted from the following two-line orbital elements,

1 12904U 81103B   15244.20067735  .00000665  00000-0  45587-4 0  9995
2 12904  81.1781 303.1945 0029784  60.9356 299.4843 15.04358826394319
Epoch (UTC): 01 September 2015 04:48:58
Eccentricity: 0.0029784
inclination: 81.1781°
perigee height: 533 km
apogee height: 574 km
right ascension of ascending node: 303.1945°
argument of perigee: 60.9356°
revolutions per day: 15.04358826
mean anomaly at epoch: 299.4843°
orbit number at epoch: 39431

The dashed part of the orbit path shows where the satellite is in the earth's shadow,  

DLR